DAL1291 KDFW-KSLC

Flight info

Callsign DAL1291
Flight time 2h 31m
Altitude 38000
Route HUDAD2 HUDAD PNH ALS JNC J12 HELPR JAZZZ1
Aircraft A319/M-SDE3FGHIRWY/LB1

Departure

Time 2026-04-30 11:51
Airport Dallas Fort Worth International Airport (KDFW)

Arrival

Time 2026-04-30 14:22
Airport Salt Lake City International Airport (KSLC)
Time Latitude Longitude Altitude Speed Heading
2026-04-30 11:37 32.89127 -97.03522 584 ft 0 kts 246°
2026-04-30 11:41 32.89128 -97.03520 584 ft 2 kts 246°
2026-04-30 11:41 32.89135 -97.03502 584 ft 2 kts 246°
2026-04-30 11:41 32.89141 -97.03485 584 ft 2 kts 246°
2026-04-30 11:41 32.89148 -97.03467 584 ft 2 kts 257°
2026-04-30 11:42 32.89146 -97.03449 584 ft 2 kts 339°
2026-04-30 11:42 32.89143 -97.03447 584 ft 0 kts 342°
2026-04-30 11:43 32.89144 -97.03448 584 ft 1 kts 343°
2026-04-30 11:43 32.89163 -97.03446 584 ft 4 kts 14°
2026-04-30 11:43 32.89176 -97.03402 584 ft 8 kts 91°
2026-04-30 11:44 32.89160 -97.03324 583 ft 11 kts 136°
2026-04-30 11:44 32.89078 -97.03319 583 ft 12 kts 181°
2026-04-30 11:44 32.88989 -97.03320 583 ft 14 kts 180°
2026-04-30 11:44 32.88879 -97.03320 582 ft 18 kts 180°
2026-04-30 11:45 32.88747 -97.03320 582 ft 20 kts 180°
2026-04-30 11:45 32.88623 -97.03331 583 ft 14 kts 210°
2026-04-30 11:45 32.88604 -97.03439 583 ft 14 kts 270°
2026-04-30 11:45 32.88603 -97.03553 584 ft 14 kts 269°
2026-04-30 11:46 32.88603 -97.03681 586 ft 16 kts 270°
2026-04-30 11:46 32.88603 -97.03808 594 ft 14 kts 270°
2026-04-30 11:46 32.88604 -97.03900 601 ft 12 kts 271°
2026-04-30 11:46 32.88605 -97.04030 601 ft 19 kts 269°
2026-04-30 11:47 32.88604 -97.04190 601 ft 20 kts 271°
2026-04-30 11:47 32.88607 -97.04359 597 ft 22 kts 270°
2026-04-30 11:47 32.88607 -97.04527 591 ft 11 kts 270°
2026-04-30 11:47 32.88607 -97.04628 589 ft 15 kts 270°
2026-04-30 11:48 32.88598 -97.04754 587 ft 14 kts 236°
2026-04-30 11:48 32.88509 -97.04782 588 ft 13 kts 204°
2026-04-30 11:48 32.88422 -97.04806 589 ft 14 kts 181°
2026-04-30 11:48 32.88296 -97.04807 589 ft 23 kts 180°
2026-04-30 11:49 32.88114 -97.04808 586 ft 27 kts 181°
2026-04-30 11:49 32.87993 -97.04822 587 ft 12 kts 222°
2026-04-30 11:49 32.87983 -97.04917 587 ft 12 kts 271°
2026-04-30 11:49 32.87984 -97.05016 587 ft 12 kts 270°
2026-04-30 11:50 32.88016 -97.05087 589 ft 10 kts 347°
2026-04-30 11:50 32.88180 -97.05089 591 ft 54 kts
2026-04-30 11:50 32.88810 -97.05087 586 ft 123 kts
2026-04-30 11:50 32.89847 -97.05080 661 ft 167 kts
2026-04-30 11:51 32.90977 -97.05091 1412 ft 160 kts
2026-04-30 11:51 32.92096 -97.05115 2100 ft 161 kts
2026-04-30 11:51 32.93237 -97.05138 2600 ft 175 kts
2026-04-30 11:51 32.94534 -97.05154 2952 ft 197 kts
2026-04-30 11:52 32.95985 -97.05170 3307 ft 217 kts
2026-04-30 11:52 32.97582 -97.05186 3720 ft 242 kts
2026-04-30 11:52 32.99291 -97.05206 4471 ft 252 kts
2026-04-30 11:52 33.01062 -97.05234 5385 ft 257 kts
2026-04-30 11:53 33.02868 -97.05262 6321 ft 260 kts
2026-04-30 11:53 33.04689 -97.05441 7159 ft 266 kts 346°
2026-04-30 11:53 33.06326 -97.06456 8040 ft 268 kts 319°
2026-04-30 11:53 33.07468 -97.08246 8769 ft 276 kts 292°
2026-04-30 11:54 33.07942 -97.10476 9642 ft 278 kts 281°
2026-04-30 11:54 33.08285 -97.12712 10507 ft 279 kts 278°
2026-04-30 11:54 33.08302 -97.15118 10780 ft 303 kts 263°
2026-04-30 11:54 33.07905 -97.17684 10996 ft 324 kts 260°
2026-04-30 11:55 33.07471 -97.20362 11556 ft 332 kts 260°
2026-04-30 11:55 33.07027 -97.23079 12263 ft 334 kts 261°
2026-04-30 11:55 33.06587 -97.25806 13012 ft 335 kts 261°
2026-04-30 11:55 33.06151 -97.28540 13789 ft 336 kts 261°
2026-04-30 11:56 33.05723 -97.31250 14476 ft 337 kts 261°
2026-04-30 11:56 33.05289 -97.34009 15155 ft 338 kts 261°
2026-04-30 11:56 33.04856 -97.36774 15844 ft 340 kts 261°
2026-04-30 11:56 33.04419 -97.39550 16519 ft 341 kts 261°
2026-04-30 11:57 33.03977 -97.42340 17212 ft 343 kts 261°
2026-04-30 11:57 33.03533 -97.45140 17906 ft 345 kts 261°
2026-04-30 11:57 33.03085 -97.47957 18560 ft 347 kts 261°
2026-04-30 11:57 33.02637 -97.50756 19153 ft 348 kts 261°
2026-04-30 11:58 33.02179 -97.53594 19773 ft 350 kts 261°
2026-04-30 11:58 33.01721 -97.56444 20391 ft 350 kts 261°
2026-04-30 11:58 33.01259 -97.59307 20987 ft 352 kts 260°
2026-04-30 11:58 33.00793 -97.62178 21564 ft 353 kts 260°
2026-04-30 11:59 33.00325 -97.65053 22140 ft 354 kts 260°
2026-04-30 11:59 32.99855 -97.67941 22709 ft 355 kts 259°
2026-04-30 11:59 32.99483 -97.70813 23234 ft 356 kts 266°
2026-04-30 11:59 32.99597 -97.73763 23712 ft 360 kts 276°
2026-04-30 12:00 33.00255 -97.76660 24120 ft 366 kts 287°
2026-04-30 12:00 33.01296 -97.79451 24523 ft 369 kts 289°
2026-04-30 12:00 33.02356 -97.82254 24918 ft 371 kts 289°
2026-04-30 12:00 33.03411 -97.85059 25311 ft 372 kts 289°
2026-04-30 12:01 33.04470 -97.87887 25707 ft 374 kts 289°
2026-04-30 12:01 33.05529 -97.90728 26139 ft 375 kts 289°
2026-04-30 12:01 33.06579 -97.93551 26523 ft 377 kts 289°
2026-04-30 12:01 33.07647 -97.96422 26900 ft 378 kts 289°
2026-04-30 12:02 33.08723 -97.99308 27260 ft 380 kts 289°
2026-04-30 12:02 33.09801 -98.02193 27618 ft 382 kts 289°
2026-04-30 12:02 33.10887 -98.05098 27977 ft 383 kts 289°
2026-04-30 12:02 33.11972 -98.08007 28325 ft 385 kts 289°
2026-04-30 12:03 33.13050 -98.10905 28651 ft 387 kts 289°
2026-04-30 12:03 33.15237 -98.16804 29296 ft 390 kts 289°
2026-04-30 12:03 33.16335 -98.19770 29609 ft 392 kts 289°
2026-04-30 12:04 33.17442 -98.22753 29986 ft 392 kts 289°
2026-04-30 12:04 33.18547 -98.25722 30394 ft 390 kts 289°
2026-04-30 12:04 33.19647 -98.28670 30810 ft 387 kts 290°
2026-04-30 12:04 33.20726 -98.31567 31290 ft 384 kts 290°
2026-04-30 12:05 33.21805 -98.34472 31746 ft 380 kts 290°
2026-04-30 12:05 33.22874 -98.37357 32202 ft 377 kts 289°
2026-04-30 12:05 33.23930 -98.40210 32654 ft 374 kts 289°
2026-04-30 12:05 33.24979 -98.43041 33126 ft 371 kts 290°
2026-04-30 12:06 33.26020 -98.45855 33625 ft 367 kts 290°
2026-04-30 12:06 33.27034 -98.48600 34107 ft 364 kts 290°
2026-04-30 12:06 33.28050 -98.51355 34535 ft 360 kts 289°
2026-04-30 12:06 33.29057 -98.54092 34934 ft 358 kts 289°
2026-04-30 12:07 33.30053 -98.56808 35291 ft 356 kts 289°
2026-04-30 12:07 33.31046 -98.59515 35643 ft 354 kts 289°
2026-04-30 12:07 33.32036 -98.62211 35974 ft 353 kts 289°
2026-04-30 12:07 33.33010 -98.64859 36285 ft 351 kts 289°
2026-04-30 12:08 33.33995 -98.67534 36602 ft 350 kts 289°
2026-04-30 12:08 33.34975 -98.70198 36907 ft 348 kts 289°
2026-04-30 12:08 33.35948 -98.72852 37193 ft 347 kts 288°
2026-04-30 12:08 33.36917 -98.75500 37449 ft 347 kts 288°
2026-04-30 12:09 33.37868 -98.78110 37768 ft 346 kts 288°
2026-04-30 12:09 33.38834 -98.80757 37991 ft 344 kts 288°
2026-04-30 12:09 33.39796 -98.83387 38035 ft 344 kts 288°
2026-04-30 12:10 33.41711 -98.88613 38036 ft 344 kts 288°
2026-04-30 12:10 33.43622 -98.93869 38040 ft 344 kts 288°
2026-04-30 12:11 33.45531 -98.99130 38041 ft 344 kts 288°
2026-04-30 12:11 33.47431 -99.04356 38044 ft 344 kts 288°
2026-04-30 12:12 33.49340 -99.09608 38014 ft 344 kts 288°
2026-04-30 12:12 33.51249 -99.14874 38013 ft 344 kts 288°
2026-04-30 12:13 33.53140 -99.20118 38017 ft 345 kts 288°
2026-04-30 12:13 33.55050 -99.25404 38017 ft 345 kts 288°
2026-04-30 12:14 33.56958 -99.30698 38018 ft 345 kts 287°
2026-04-30 12:14 33.58844 -99.35968 38020 ft 345 kts 287°
2026-04-30 12:15 33.60747 -99.41265 38068 ft 345 kts 288°
2026-04-30 12:15 33.63565 -99.46082 38058 ft 360 kts 302°
2026-04-30 12:16 33.66873 -99.50548 38040 ft 360 kts 301°
2026-04-30 12:16 33.70189 -99.55060 38032 ft 360 kts 301°
2026-04-30 12:17 33.75171 -99.61850 38022 ft 361 kts 301°
2026-04-30 12:17 33.78475 -99.66352 38026 ft 361 kts 301°
2026-04-30 12:18 33.81803 -99.70879 38036 ft 361 kts 301°
2026-04-30 12:18 33.85124 -99.75414 38076 ft 361 kts 301°
2026-04-30 12:19 33.88437 -99.79948 38073 ft 360 kts 301°
2026-04-30 12:19 33.91722 -99.84446 38069 ft 359 kts 300°
2026-04-30 12:20 33.95021 -99.88977 38057 ft 359 kts 300°
2026-04-30 12:20 33.98296 -99.93480 38054 ft 359 kts 300°
2026-04-30 12:21 34.01593 -99.98011 38055 ft 359 kts 300°
2026-04-30 12:21 34.04898 -100.02556 38060 ft 359 kts 300°
2026-04-30 12:22 34.08164 -100.07060 38101 ft 359 kts 300°
2026-04-30 12:22 34.11446 -100.11596 38101 ft 358 kts 300°
2026-04-30 12:23 34.14721 -100.16129 38101 ft 357 kts 300°
2026-04-30 12:23 34.17998 -100.20656 38105 ft 357 kts 300°
2026-04-30 12:24 34.21247 -100.25160 38104 ft 357 kts 300°
2026-04-30 12:24 34.23968 -100.28940 38105 ft 358 kts 300°
2026-04-30 12:25 34.27245 -100.33485 38076 ft 358 kts 300°
2026-04-30 12:25 34.30498 -100.38004 38110 ft 358 kts 300°
2026-04-30 12:26 34.33769 -100.42559 38103 ft 357 kts 300°
2026-04-30 12:26 34.37028 -100.47111 38098 ft 357 kts 300°
2026-04-30 12:27 34.40258 -100.51632 38093 ft 357 kts 300°
2026-04-30 12:27 34.43525 -100.56191 38088 ft 357 kts 300°
2026-04-30 12:28 34.46757 -100.60710 38077 ft 357 kts 300°
2026-04-30 12:28 34.50019 -100.65280 38075 ft 358 kts 300°
2026-04-30 12:29 34.53276 -100.69857 38104 ft 358 kts 300°
2026-04-30 12:29 34.56518 -100.74416 38094 ft 359 kts 300°
2026-04-30 12:30 34.59796 -100.79017 38086 ft 359 kts 300°
2026-04-30 12:30 34.63061 -100.83613 38084 ft 359 kts 300°
2026-04-30 12:31 34.66303 -100.88187 38079 ft 359 kts 300°
2026-04-30 12:31 34.69563 -100.92800 38078 ft 359 kts 300°
2026-04-30 12:32 34.72829 -100.97414 38080 ft 359 kts 300°
2026-04-30 12:32 34.76068 -101.02004 38124 ft 359 kts 300°
2026-04-30 12:33 34.79339 -101.06638 38108 ft 359 kts 300°
2026-04-30 12:33 34.82569 -101.11229 38101 ft 359 kts 300°
2026-04-30 12:34 34.85821 -101.15854 38097 ft 359 kts 300°
2026-04-30 12:34 34.89071 -101.20481 38092 ft 359 kts 300°
2026-04-30 12:35 34.92318 -101.25107 38089 ft 359 kts 300°
2026-04-30 12:35 34.95544 -101.29719 38095 ft 359 kts 300°
2026-04-30 12:36 34.98790 -101.34358 38121 ft 359 kts 300°
2026-04-30 12:36 35.02028 -101.38989 38113 ft 358 kts 300°
2026-04-30 12:37 35.05259 -101.43612 38103 ft 358 kts 300°
2026-04-30 12:37 35.08486 -101.48240 38094 ft 357 kts 300°
2026-04-30 12:38 35.11691 -101.52847 38095 ft 357 kts 300°
2026-04-30 12:38 35.14908 -101.57483 38093 ft 357 kts 300°
2026-04-30 12:39 35.18118 -101.62115 38158 ft 357 kts 300°
2026-04-30 12:39 35.21317 -101.66735 38160 ft 353 kts 300°
2026-04-30 12:40 35.24322 -101.71376 38140 ft 345 kts 295°
2026-04-30 12:40 35.26983 -101.76279 38135 ft 346 kts 295°
2026-04-30 12:41 35.29649 -101.81190 38134 ft 346 kts 295°
2026-04-30 12:41 35.32302 -101.86071 38119 ft 346 kts 295°
2026-04-30 12:42 35.34967 -101.90985 38106 ft 346 kts 295°
2026-04-30 12:42 35.37631 -101.95901 38102 ft 346 kts 295°
2026-04-30 12:43 35.40297 -102.00835 38088 ft 346 kts 295°
2026-04-30 12:43 35.42944 -102.05743 38054 ft 346 kts 294°
2026-04-30 12:44 35.45604 -102.10678 38075 ft 347 kts 295°
2026-04-30 12:44 35.48270 -102.15624 38074 ft 347 kts 294°
2026-04-30 12:45 35.50929 -102.20577 38074 ft 347 kts 294°
2026-04-30 12:45 35.53571 -102.25506 38076 ft 347 kts 294°
2026-04-30 12:46 35.56227 -102.30465 38083 ft 347 kts 294°
2026-04-30 12:46 35.58881 -102.35427 38079 ft 347 kts 294°
2026-04-30 12:47 35.61534 -102.40385 38109 ft 346 kts 294°
2026-04-30 12:47 35.64154 -102.45280 38087 ft 343 kts 294°
2026-04-30 12:48 35.66777 -102.50199 38088 ft 343 kts 294°
2026-04-30 12:48 35.69386 -102.55113 38086 ft 343 kts 294°
2026-04-30 12:49 35.71992 -102.60032 38089 ft 343 kts 294°
2026-04-30 12:49 35.74587 -102.64929 38083 ft 343 kts 294°
2026-04-30 12:50 35.77200 -102.69862 38082 ft 343 kts 294°
2026-04-30 12:50 35.79812 -102.74791 38089 ft 343 kts 294°
2026-04-30 12:51 35.82414 -102.79700 38105 ft 344 kts 293°
2026-04-30 12:51 35.85023 -102.84650 38093 ft 344 kts 293°
2026-04-30 12:52 35.87617 -102.89581 38107 ft 344 kts 293°
2026-04-30 12:52 35.90228 -102.94543 38086 ft 345 kts 293°
2026-04-30 12:53 35.92843 -102.99513 38077 ft 345 kts 293°
2026-04-30 12:53 35.95455 -103.04491 38080 ft 345 kts 293°
2026-04-30 12:54 35.98052 -103.09446 38075 ft 345 kts 293°
2026-04-30 12:54 36.00667 -103.14445 38066 ft 346 kts 293°
2026-04-30 12:55 36.03291 -103.19483 38076 ft 353 kts 292°
2026-04-30 12:55 36.05951 -103.24571 38062 ft 351 kts 292°
2026-04-30 12:56 36.08595 -103.29649 38063 ft 351 kts 292°
2026-04-30 12:56 36.11215 -103.34700 38075 ft 350 kts 292°
2026-04-30 12:57 36.13858 -103.39788 38063 ft 351 kts 292°
2026-04-30 12:57 36.16499 -103.44878 38060 ft 351 kts 292°
2026-04-30 12:58 36.19127 -103.49948 38058 ft 352 kts 293°
2026-04-30 12:58 36.21775 -103.55066 38068 ft 353 kts 293°
2026-04-30 12:59 36.24412 -103.60185 38060 ft 355 kts 294°
2026-04-30 12:59 36.27074 -103.65355 38048 ft 357 kts 294°
2026-04-30 13:00 36.29752 -103.70553 38046 ft 358 kts 294°
2026-04-30 13:00 36.32441 -103.75766 38047 ft 358 kts 294°
2026-04-30 13:01 36.35107 -103.80959 38047 ft 358 kts 294°
2026-04-30 13:01 36.37785 -103.86196 38032 ft 359 kts 294°
2026-04-30 13:02 36.40448 -103.91402 38033 ft 359 kts 294°
2026-04-30 13:02 36.43132 -103.96662 38079 ft 360 kts 294°
2026-04-30 13:03 36.45791 -104.01880 38072 ft 359 kts 294°
2026-04-30 13:03 36.48463 -104.07125 38064 ft 358 kts 294°
2026-04-30 13:04 36.51137 -104.12376 38054 ft 358 kts 294°
2026-04-30 13:04 36.53776 -104.17585 38047 ft 358 kts 294°
2026-04-30 13:05 36.56434 -104.22838 38054 ft 358 kts 294°
2026-04-30 13:06 36.60416 -104.30692 38095 ft 359 kts 294°
2026-04-30 13:06 36.63080 -104.35962 38154 ft 359 kts 293°
2026-04-30 13:07 36.65738 -104.41242 38181 ft 359 kts 293°
2026-04-30 13:07 36.68382 -104.46505 38191 ft 360 kts 293°
2026-04-30 13:08 36.71041 -104.51797 38185 ft 360 kts 293°
2026-04-30 13:08 36.73676 -104.57067 38185 ft 360 kts 293°
2026-04-30 13:09 36.76324 -104.62367 38178 ft 360 kts 293°
2026-04-30 13:09 36.78978 -104.67657 38151 ft 360 kts 293°
2026-04-30 13:10 36.81606 -104.72931 38119 ft 359 kts 293°
2026-04-30 13:10 36.84249 -104.78228 38081 ft 360 kts 293°
2026-04-30 13:11 36.86454 -104.82649 38056 ft 360 kts 293°
2026-04-30 13:11 36.89101 -104.87975 38032 ft 361 kts 293°
2026-04-30 13:12 36.91742 -104.93304 38016 ft 361 kts 293°
2026-04-30 13:12 36.94372 -104.98614 38013 ft 361 kts 293°
2026-04-30 13:13 36.98331 -105.06625 38021 ft 362 kts 294°
2026-04-30 13:14 37.02310 -105.14687 38007 ft 362 kts 294°
2026-04-30 13:14 37.06265 -105.22737 37992 ft 363 kts 294°
2026-04-30 13:15 37.10230 -105.30822 38027 ft 364 kts 294°
2026-04-30 13:16 37.12882 -105.36220 38010 ft 363 kts 294°
2026-04-30 13:16 37.15526 -105.41601 38008 ft 362 kts 294°
2026-04-30 13:17 37.19467 -105.49698 38022 ft 362 kts 292°
2026-04-30 13:18 37.23409 -105.57808 37990 ft 365 kts 294°
2026-04-30 13:18 37.27395 -105.65999 38060 ft 366 kts 294°
2026-04-30 13:19 37.30028 -105.71445 38087 ft 367 kts 294°
2026-04-30 13:19 37.32693 -105.76954 38119 ft 368 kts 294°
2026-04-30 13:20 37.35415 -105.82389 38143 ft 373 kts 298°
2026-04-30 13:20 37.38549 -105.87605 38148 ft 374 kts 298°
2026-04-30 13:21 37.41693 -105.92845 38151 ft 374 kts 298°
2026-04-30 13:21 37.43241 -105.95428 38021 ft 374 kts 298°
2026-04-30 13:22 37.46374 -106.00664 38011 ft 374 kts 298°
2026-04-30 13:22 37.51070 -106.08534 38065 ft 375 kts 298°
2026-04-30 13:23 37.55760 -106.16404 38109 ft 376 kts 299°
2026-04-30 13:24 37.62054 -106.27023 38151 ft 379 kts 299°
2026-04-30 13:25 37.68369 -106.37690 38169 ft 380 kts 299°
2026-04-30 13:26 37.76259 -106.51082 38179 ft 380 kts 299°
2026-04-30 13:28 37.84131 -106.64465 38124 ft 378 kts 299°
2026-04-30 13:28 37.88825 -106.72491 38081 ft 378 kts 300°
2026-04-30 13:29 37.95073 -106.83178 38112 ft 378 kts 299°
2026-04-30 13:31 38.02875 -106.96611 38117 ft 378 kts 299°
2026-04-30 13:32 38.10618 -107.09982 38142 ft 377 kts 299°
2026-04-30 13:33 38.16833 -107.20755 38126 ft 377 kts 299°
2026-04-30 13:34 38.21469 -107.28811 38113 ft 377 kts 299°
2026-04-30 13:35 38.27663 -107.39587 38127 ft 377 kts 299°
2026-04-30 13:36 38.33782 -107.50278 38046 ft 374 kts 299°
2026-04-30 13:36 38.38377 -107.58357 38053 ft 375 kts 298°
2026-04-30 13:37 38.42975 -107.66450 38053 ft 376 kts 299°
2026-04-30 13:38 38.47559 -107.74533 38054 ft 376 kts 298°
2026-04-30 13:39 38.53683 -107.85342 38144 ft 376 kts 299°
2026-04-30 13:40 38.58274 -107.93483 38142 ft 376 kts 299°
2026-04-30 13:40 38.61328 -107.98918 38131 ft 376 kts 299°
2026-04-30 13:41 38.64392 -108.04364 38135 ft 377 kts 298°
2026-04-30 13:41 38.67462 -108.09830 38150 ft 378 kts 298°
2026-04-30 13:42 38.70513 -108.15269 38150 ft 378 kts 298°
2026-04-30 13:42 38.75090 -108.23461 38129 ft 378 kts 298°
2026-04-30 13:43 38.78160 -108.28967 38112 ft 379 kts 298°
2026-04-30 13:43 38.81222 -108.34475 38094 ft 380 kts 298°
2026-04-30 13:44 38.84299 -108.40016 38056 ft 382 kts 298°
2026-04-30 13:44 38.87385 -108.45574 38024 ft 382 kts 299°
2026-04-30 13:45 38.91997 -108.53901 38050 ft 383 kts 299°
2026-04-30 13:46 38.95088 -108.59473 38066 ft 383 kts 299°
2026-04-30 13:46 38.98181 -108.65074 38083 ft 385 kts 299°
2026-04-30 13:47 39.01270 -108.70698 38065 ft 388 kts 299°
2026-04-30 13:47 39.04385 -108.76375 37995 ft 390 kts 299°
2026-04-30 13:48 39.07206 -108.82294 37986 ft 385 kts 292°
2026-04-30 13:48 39.09671 -108.88389 37998 ft 386 kts 292°
2026-04-30 13:49 39.12151 -108.94519 38006 ft 386 kts 292°
2026-04-30 13:49 39.14637 -109.00669 38010 ft 386 kts 292°
2026-04-30 13:50 39.17113 -109.06808 38014 ft 385 kts 292°
2026-04-30 13:50 39.20820 -109.16021 38014 ft 385 kts 292°
2026-04-30 13:51 39.23267 -109.22111 38018 ft 385 kts 292°
2026-04-30 13:51 39.25731 -109.28264 38026 ft 385 kts 292°
2026-04-30 13:52 39.28169 -109.34385 38062 ft 386 kts 293°
2026-04-30 13:52 39.30636 -109.40566 38034 ft 388 kts 293°
2026-04-30 13:53 39.33112 -109.46769 38010 ft 389 kts 293°
2026-04-30 13:53 39.35172 -109.51955 38028 ft 389 kts 293°
2026-04-30 13:54 39.38033 -109.59183 38037 ft 389 kts 293°
2026-04-30 13:54 39.40501 -109.65419 38053 ft 389 kts 293°
2026-04-30 13:55 39.42963 -109.71665 38102 ft 389 kts 293°
2026-04-30 13:55 39.45419 -109.77901 38062 ft 392 kts 292°
2026-04-30 13:56 39.47898 -109.84219 38040 ft 394 kts 293°
2026-04-30 13:56 39.50390 -109.90562 38059 ft 395 kts 293°
2026-04-30 13:57 39.52883 -109.96921 38072 ft 395 kts 293°
2026-04-30 13:57 39.55355 -110.03242 38080 ft 395 kts 293°
2026-04-30 13:58 39.58659 -110.11719 38084 ft 396 kts 292°
2026-04-30 13:59 39.61151 -110.18119 38053 ft 398 kts 294°
2026-04-30 13:59 39.63654 -110.24559 38068 ft 399 kts 294°
2026-04-30 14:00 39.66133 -110.30951 38073 ft 399 kts 294°
2026-04-30 14:00 39.68629 -110.37407 37779 ft 399 kts 294°
2026-04-30 14:00 39.69871 -110.40630 37519 ft 399 kts 294°
2026-04-30 14:01 39.71094 -110.43814 37223 ft 399 kts 294°
2026-04-30 14:01 39.72330 -110.47040 36549 ft 400 kts 294°
2026-04-30 14:01 39.73573 -110.50280 35794 ft 401 kts 294°
2026-04-30 14:01 39.74826 -110.53544 35015 ft 404 kts 294°
2026-04-30 14:02 39.76089 -110.56836 34150 ft 409 kts 294°
2026-04-30 14:02 39.77372 -110.60175 33039 ft 415 kts 295°
2026-04-30 14:02 39.78673 -110.63556 32010 ft 420 kts 295°
2026-04-30 14:02 39.79986 -110.66976 30926 ft 425 kts 295°
2026-04-30 14:03 39.81294 -110.70403 29778 ft 431 kts 296°
2026-04-30 14:03 39.82632 -110.73921 28489 ft 436 kts 296°
2026-04-30 14:03 39.83980 -110.77469 27457 ft 436 kts 296°
2026-04-30 14:03 39.85312 -110.80975 26698 ft 429 kts 296°
2026-04-30 14:04 39.86629 -110.84439 25941 ft 424 kts 297°
2026-04-30 14:04 39.87928 -110.87862 25186 ft 420 kts 297°
2026-04-30 14:04 39.89214 -110.91257 24446 ft 416 kts 297°
2026-04-30 14:04 39.90489 -110.94627 23716 ft 413 kts 297°
2026-04-30 14:05 39.91757 -110.97984 22926 ft 410 kts 297°
2026-04-30 14:05 39.93007 -111.01293 22257 ft 404 kts 297°
2026-04-30 14:05 39.94225 -111.04521 21612 ft 399 kts 297°
2026-04-30 14:05 39.95443 -111.07756 20983 ft 395 kts 297°
2026-04-30 14:06 39.96647 -111.10953 20386 ft 391 kts 297°
2026-04-30 14:06 39.99020 -111.17264 19249 ft 384 kts 297°
2026-04-30 14:07 40.01365 -111.23493 18192 ft 379 kts 297°
2026-04-30 14:07 40.02505 -111.26529 17649 ft 375 kts 297°
2026-04-30 14:07 40.03654 -111.29600 16971 ft 375 kts 297°
2026-04-30 14:08 40.05917 -111.35660 15948 ft 367 kts 297°
2026-04-30 14:08 40.07022 -111.38621 15739 ft 355 kts 297°
2026-04-30 14:08 40.09082 -111.44156 15483 ft 328 kts 297°
2026-04-30 14:09 40.10058 -111.46791 15362 ft 316 kts 297°
2026-04-30 14:09 40.11004 -111.49342 15226 ft 306 kts 297°
2026-04-30 14:09 40.12832 -111.54258 14961 ft 298 kts 297°
2026-04-30 14:10 40.13718 -111.56708 14865 ft 297 kts 296°
2026-04-30 14:10 40.14549 -111.59143 14671 ft 296 kts 295°
2026-04-30 14:10 40.15375 -111.61619 14478 ft 295 kts 295°
2026-04-30 14:10 40.16192 -111.64087 14286 ft 295 kts 295°
2026-04-30 14:11 40.17072 -111.66501 14095 ft 293 kts 302°
2026-04-30 14:11 40.18309 -111.68592 13894 ft 290 kts 316°
2026-04-30 14:11 40.19798 -111.70379 13708 ft 290 kts 318°
2026-04-30 14:11 40.21271 -111.72133 13522 ft 289 kts 318°
2026-04-30 14:12 40.22756 -111.73909 13330 ft 289 kts 318°
2026-04-30 14:12 40.24241 -111.75686 13145 ft 288 kts 318°
2026-04-30 14:12 40.25722 -111.77459 12956 ft 288 kts 318°
2026-04-30 14:12 40.27204 -111.79234 12774 ft 288 kts 318°
2026-04-30 14:13 40.28661 -111.80979 12578 ft 287 kts 318°
2026-04-30 14:13 40.30138 -111.82750 12394 ft 286 kts 318°
2026-04-30 14:13 40.31597 -111.84501 12221 ft 280 kts 319°
2026-04-30 14:13 40.33014 -111.86203 12077 ft 271 kts 319°
2026-04-30 14:14 40.34410 -111.87764 11883 ft 263 kts 327°
2026-04-30 14:14 40.36022 -111.88877 11791 ft 262 kts 336°
2026-04-30 14:14 40.37683 -111.89853 11632 ft 261 kts 336°
2026-04-30 14:14 40.39339 -111.90832 11442 ft 260 kts 336°
2026-04-30 14:15 40.40989 -111.91812 11271 ft 257 kts 336°
2026-04-30 14:15 40.42580 -111.92759 11104 ft 250 kts 336°
2026-04-30 14:15 40.44209 -111.93458 10911 ft 244 kts 350°
2026-04-30 14:15 40.45919 -111.93701 10486 ft 249 kts 355°
2026-04-30 14:16 40.47650 -111.93876 10146 ft 248 kts 355°
2026-04-30 14:16 40.49348 -111.94064 9808 ft 247 kts 355°
2026-04-30 14:16 40.51056 -111.94261 9465 ft 245 kts 355°
2026-04-30 14:16 40.52755 -111.94457 9131 ft 244 kts 355°
2026-04-30 14:17 40.54445 -111.94652 8799 ft 242 kts 355°
2026-04-30 14:17 40.56105 -111.94843 8468 ft 235 kts 355°
2026-04-30 14:17 40.57701 -111.95027 8164 ft 226 kts 355°
2026-04-30 14:17 40.59247 -111.95206 7862 ft 219 kts 355°
2026-04-30 14:18 40.60738 -111.95378 7592 ft 211 kts 355°
2026-04-30 14:18 40.62162 -111.95542 7319 ft 206 kts 355°
2026-04-30 14:18 40.64965 -111.95866 6764 ft 198 kts 355°
2026-04-30 14:19 40.67632 -111.96174 6257 ft 184 kts 355°
2026-04-30 14:19 40.68868 -111.96317 6022 ft 176 kts 355°
2026-04-30 14:19 40.70072 -111.96456 5799 ft 166 kts 355°
2026-04-30 14:20 40.71183 -111.96585 5577 ft 158 kts 355°
2026-04-30 14:20 40.72243 -111.96708 5359 ft 146 kts 355°
2026-04-30 14:20 40.74162 -111.96930 4946 ft 134 kts 354°
2026-04-30 14:21 40.75088 -111.97041 4764 ft 133 kts 353°
2026-04-30 14:21 40.75993 -111.97150 4606 ft 132 kts 354°
2026-04-30 14:21 40.77812 -111.97358 4268 ft 128 kts 355°
2026-04-30 14:22 40.78538 -111.97441 4231 ft 80 kts 355°
2026-04-30 14:22 40.79130 -111.97538 4232 ft 22 kts 332°
2026-04-30 14:22 40.79211 -111.97658 4231 ft 17 kts 275°
2026-04-30 14:23 40.79059 -111.97718 4231 ft 16 kts 175°
2026-04-30 14:23 40.78733 -111.97680 4231 ft 27 kts 175°
2026-04-30 14:24 40.78513 -111.97755 4231 ft 15 kts 263°
2026-04-30 14:24 40.78500 -111.97894 4231 ft 16 kts 263°
2026-04-30 14:25 40.78480 -111.98185 4231 ft 14 kts 265°
2026-04-30 14:25 40.78525 -111.98255 4231 ft 2 kts 356°
2026-04-30 14:26 40.78532 -111.98256 4231 ft 0 kts 355°